Hourly Data Report for October 11, 2015

All times are specified in Local Standard Time (LST). Add 1 hour to adjust for Daylight Saving Time where and when it is observed.

KAMLOOPS A
BRITISH COLUMBIA

50°42'09.000" N
120°26'55.000" W
345.30 m
1163781
71887
YKA

Download Data

Hourly Data (October 2015)
Hourly Data Report for October 11, 2015
Temp Definition
°C
Dew Point Temp Definition
°C
Rel Hum Definition
%
Wind Dir Definition
10's deg

Wind Spd Definition
km/h
Visibility Definition
km
Stn Press Definition
kPa
Hmdx Definition


Wind Chill Definition


Weather Definition


TIME
00:00 Legend Double Dagger 13.9 4.8 54 26 10 64.4 96.25     LegendNANA
01:00 Legend Double Dagger 14.4 5.0 53 26 16 64.4 96.42     Cloudy
02:00 Legend Double Dagger 14.4 4.2 50 24 14 64.4 96.65     LegendNANA
03:00 Legend Double Dagger 12.3 4.1 57 3 5 64.4 96.81     LegendNANA
04:00 Legend Double Dagger 12.7 1.7 47 22 5 64.4 96.96     Mainly Clear
05:00 Legend Double Dagger 10.0 2.9 61 10 12 64.4 97.18     LegendNANA
06:00 Legend Double Dagger 9.2 3.2 66 14 7 64.4 97.32     LegendNANA
07:00 Legend Double Dagger 9.4 2.1 60 29 5 64.4 97.47     Clear
08:00 Legend Double Dagger 12.0 4.0 58 7 7 64.4 97.57     LegendNANA
09:00 Legend Double Dagger 14.1 2.7 46 17 4 64.4 97.63     LegendNANA
10:00 Legend Double Dagger 16.1 1.5 37 13 7 64.4 97.68     Clear
11:00 Legend Double Dagger 17.3 0.1 31 15 8 64.4 97.67     LegendNANA
12:00 Legend Double Dagger 18.3 -0.4 28 10 6 64.4 97.61     LegendNANA
13:00 Legend Double Dagger 20.1 0.2 26 9 16 64.4 97.56     Mainly Clear
14:00 Legend Double Dagger 19.4 -1.0 25 8 13 64.4 97.54     LegendNANA
15:00 Legend Double Dagger 18.5 -1.2 26 15 19 64.4 97.54     LegendNANA
16:00 Legend Double Dagger 17.5 1.2 33 19 21 64.4 97.59     Cloudy
17:00 Legend Double Dagger 16.3 -0.8 31 26 19 64.4 97.62     LegendNANA
18:00 Legend Double Dagger 12.6 2.5 50 20 29 64.4 97.92     LegendNANA
19:00 Legend Double Dagger 11.9 1.0 47 4 16 64.4 97.86     Mostly Cloudy
20:00 Legend Double Dagger 11.9 1.9 50 10 27 64.4 97.82     LegendNANA
21:00 Legend Double Dagger 11.7 2.2 52 10 23 64.4 97.72     LegendNANA
22:00 Legend Double Dagger 11.4 2.7 55 11 22 64.4 97.66     Mostly Cloudy
23:00 Legend Double Dagger 11.0 2.6 56 10 20 64.4 97.61     LegendNANA

Notes on Data Quality.

Legend

  • E = Estimated
  • M = Missing
  • NA = Not Available
  • ‡ = Partner data that is not subject to review by the National Climate Archives
Date modified: